Temperature
22 22 22 22 19 17 19 20 20 21 21 21 21 20 19 19 18 18 18 18 18 18 18 18 18 18 18 18 18 18 18 18 18 18 18 18 18 18 18 18 18 18 18 18 18 18 18 18 18
22 22 22 21 17 17 19 20 20 21 21 22 21 21 20 19 19 18 18 18 18 18 18 18 18 18 18 18 18 18 18 18 18 18 18 18 18 18 18 18 18 18 18 18 18 18 18 18 18
22 22 22 18 18 18 20 20 21 22 22 22 21 21 20 19 19 19 19 18 18 18 18 18 18 18 18 18 18 18 18 18 17 17 18 18 18 18 18 18 18 18 17 17 17 17 17 17 17
22 22 21 18 19 20 20 20 21 22 22 22 21 20 20 19 19 19 19 19 19 18 18 18 18 18 18 18 18 18 17 17 17 17 17 18 18 17 17 17 17 17 17 17 17 17 17 17 17
22 21 18 18 20 21 21 22 22 21 21 21 20 19 19 19 19 19 19 19 19 18 18 18 18 18 18 18 18 18 17 17 17 17 17 17 17 17 17 17 17 17 17 17 17 17 17 17 17
22 19 18 18 20 21 21 22 22 21 21 20 20 19 19 19 19 19 19 19 19 18 18 18 18 18 18 18 18 17 17 17 17 17 17 17 17 17 17 17 17 17 17 17 17 17 17 17 17
21 18 18 19 20 21 22 23 22 21 21 21 20 19 19 19 19 19 19 19 18 18 18 18 18 18 18 18 18 17 17 17 17 17 17 17 17 17 17 17 17 17 17 17 17 17 17 16 17
22 18 19 19 20 21 22 23 22 22 21 21 21 19 19 19 19 19 19 19 18 18 18 18 18 18 18 17 17 17 17 17 17 17 17 17 17 17 17 17 17 17 17 17 17 17 16 16 16
23 18 18 20 20 21 22 22 22 22 22 21 21 20 20 19 19 19 19 18 18 18 18 18 18 18 17 17 17 17 17 17 17 17 17 17 17 17 17 16 16 17 17 16 16 16 16 16 16
21 18 20 21 21 21 22 22 22 21 20 20 20 20 20 19 19 19 19 18 18 18 18 18 18 18 17 17 17 17 17 17 17 17 17 17 17 17 16 16 16 16 16 16 16 16 16 16 16
21 20 21 21 22 22 22 22 22 21 19 20 20 20 19 19 19 19 19 19 19 18 18 18 18 18 17 17 17 17 17 17 17 17 17 16 16 16 16 16 16 16 16 16 16 16 16 16 16
21 21 22 22 23 23 22 22 22 21 21 21 21 20 20 20 19 19 19 19 19 18 18 18 18 18 17 17 17 17 17 17 17 17 17 16 16 16 16 16 16 16 16 16 16 16 16 16 16
21 21 22 23 23 22 22 22 21 21 22 21 21 20 20 20 20 19 19 19 19 18 18 18 18 18 17 17 17 17 17 17 17 17 16 16 16 16 16 16 16 16 16 16 16 16 16 16 16
22 22 22 22 22 22 22 21 21 21 21 21 21 20 20 20 20 20 19 19 19 19 18 18 18 18 17 17 17 17 17 17 17 17 16 16 16 16 16 16 16 16 16 16 16 16 16 16 15
22 21 21 22 22 22 22 20 20 21 21 21 20 20 20 20 20 20 20 19 19 19 18 18 18 18 17 17 17 17 17 17 17 17 16 16 16 16 16 16 16 16 16 15 15 15 15 15 15
21 20 19 21 21 22 21 19 20 21 21 21 20 20 20 20 20 20 20 19 19 19 19 18 18 18 17 17 17 17 17 17 17 16 16 16 16 16 16 16 16 15 15 15 15 15 15 15 15
19 19 19 20 21 21 20 19 20 21 21 20 20 20 20 20 20 20 20 19 19 19 19 18 18 18 17 17 17 17 17 17 16 16 16 16 16 16 16 16 15 15 15 15 15 15 15 15 15
19 19 19 20 21 21 19 19 19 21 21 20 20 20 20 20 20 20 20 19 19 19 19 18 18 18 17 17 17 17 17 16 16 16 16 16 16 16 16 15 15 15 15 15 15 15 15 15 15
20 19 19 20 21 21 19 19 19 20 20 20 20 20 20 20 20 20 20 19 19 19 19 18 18 18 17 17 17 17 17 16 16 16 16 16 16 16 16 15 15 15 15 15 15 15 15 15 15
20 19 19 20 21 21 19 19 19 19 19 20 20 20 20 20 20 20 19 19 19 19 19 18 18 18 17 17 17 17 17 16 16 16 16 16 16 15 15 15 15 15 15 15 15 14 14 14 14
20 19 19 20 20 20 20 18 18 19 20 20 20 21 20 20 20 20 19 19 19 19 19 18 18 18 17 17 17 17 16 16 16 16 16 16 15 15 15 15 15 15 15 15 14 14 14 14 14
19 21 21 20 19 18 19 17 17 18 18 18 19 20 20 20 20 19 19 19 19 19 19 18 18 18 17 17 17 17 17 16 16 16 16 16 15 15 15 15 15 15 15 15 14 14 14 14 14
20 21 21 20 19 18 18 17 17 17 18 18 18 19 20 20 20 19 19 19 19 18 18 18 18 18 17 17 17 17 17 16 16 16 16 15 15 15 15 15 15 15 15 14 14 14 14 14 14
21 20 19 17 17 17 17 17 17 16 18 18 18 19 19 20 20 19 19 19 19 18 18 18 18 17 17 17 17 17 17 16 16 16 16 15 15 15 15 15 15 15 14 14 14 14 14 14 14
19 17 16 16 15 16 17 17 17 18 18 18 18 19 19 20 19 19 19 19 18 18 18 18 17 17 17 17 17 17 17 16 16 16 16 15 15 15 15 15 15 14 14 14 14 14 14 14 13
19 17 16 16 16 16 17 17 17 19 19 20 20 20 19 19 19 19 19 18 18 18 18 17 17 17 17 17 17 17 16 16 16 16 15 15 15 15 15 14 14 14 14 14 14 14 14 14 13
19 17 17 16 16 16 16 17 18 19 18 18 19 19 19 19 19 19 19 18 18 18 18 17 17 17 17 17 16 16 16 16 16 15 15 15 15 15 14 14 14 14 14 14 14 14 14 13 13
19 18 15 16 16 16 16 17 17 18 18 18 17 18 18 19 19 19 18 18 18 18 17 17 17 17 16 16 16 16 16 16 15 15 15 15 15 14 14 14 14 14 14 14 14 14 13 13 13
19 18 16 15 15 15 16 16 18 17 17 17 17 18 18 18 18 18 18 18 18 17 17 17 16 16 16 16 16 16 15 15 15 15 15 14 14 14 14 14 14 14 14 14 14 13 13 13 13
18 17 16 15 15 14 14 15 18 17 17 17 17 18 18 18 18 18 18 17 17 17 17 16 16 16 16 16 15 15 15 15 15 14 14 14 14 14 14 14 14 14 13 13 13 13 13 13 13
Wind_Speed
4 3 3 4 6 6 3 1 2 4 5 5 8 9 8 6 4 4 3 5 7 5 5 7 9 10 10 11 11 12 13 13 13 13 13 13 13 13 13 13 13 13 13 14 14 14 14 14 14
2 1 4 5 6 5 2 1 4 5 6 6 7 7 7 6 4 6 3 6 8 7 6 7 9 10 11 11 11 12 12 13 13 12 13 13 13 13 12 12 13 13 13 13 13 13 13 13 13
2 1 4 5 4 4 3 1 4 5 6 5 5 6 5 4 4 4 6 9 8 7 6 8 10 10 11 11 11 11 12 12 12 12 13 13 13 13 12 12 12 12 12 12 12 12 13 12 12
3 5 5 6 4 2 5 4 6 7 6 6 6 6 4 3 4 6 9 10 9 6 7 8 10 10 10 11 11 11 11 11 12 12 13 13 13 13 13 12 11 11 11 11 12 12 12 12 12
4 5 6 4 2 1 3 4 6 7 4 5 7 6 3 3 7 10 10 10 9 6 6 8 10 10 11 11 11 11 11 12 12 12 12 12 12 12 12 12 11 10 11 11 11 11 11 11 11
5 5 5 3 3 3 2 4 8 9 7 6 7 6 2 2 7 8 9 8 8 8 7 8 10 10 10 10 10 10 11 11 11 12 12 12 12 11 11 10 10 10 10 10 10 10 10 10 10
5 4 4 4 3 3 3 4 7 8 7 5 6 6 3 2 5 7 8 8 7 7 7 6 7 8 9 9 9 9 10 10 11 10 11 11 11 11 10 9 9 9 9 10 10 10 10 11 11
5 5 3 3 4 2 1 4 6 8 6 6 5 7 5 5 6 7 7 6 6 6 6 5 6 6 6 6 8 8 8 9 9 10 10 10 10 9 9 8 8 9 10 10 9 9 10 11 12
5 5 3 3 5 2 3 5 3 5 7 4 4 5 7 9 8 8 6 4 4 5 5 5 4 4 5 5 6 6 6 7 8 7 8 8 7 7 7 8 9 9 9 9 9 8 9 10 11
5 4 3 3 5 4 3 5 3 5 7 5 5 5 8 8 9 8 7 5 5 5 5 4 5 4 4 4 4 4 4 5 6 6 6 6 6 5 6 6 8 8 8 7 7 8 8 8 7
4 4 2 2 3 4 3 2 3 7 4 6 9 9 9 8 8 8 7 6 5 5 5 5 5 4 4 3 4 3 3 4 5 6 6 6 5 5 5 4 4 6 6 5 6 7 6 6 5
4 2 3 2 3 3 3 2 3 4 6 8 12 12 10 9 8 8 7 6 6 6 5 5 4 4 3 4 4 4 3 3 3 5 6 5 4 3 3 2 2 3 3 4 4 3 4 5 6
4 2 2 3 3 3 4 4 3 1 4 7 9 10 10 9 7 6 6 6 6 6 6 5 5 5 4 4 3 4 3 3 4 5 6 7 4 3 2 2 2 3 3 3 2 2 3 4 5
3 2 2 2 2 3 5 2 3 3 6 8 9 9 9 9 8 6 6 6 6 6 6 6 6 5 5 4 3 3 4 4 5 5 6 8 6 4 3 2 2 2 2 3 3 3 3 3 4
2 3 2 1 2 2 5 3 1 5 6 8 8 8 8 8 8 8 7 8 7 7 6 6 7 6 6 5 4 4 4 5 4 4 6 7 7 5 4 3 2 2 3 4 4 4 4 4 4
3 3 1 3 2 3 6 3 6 4 6 7 6 6 6 6 7 8 7 7 7 6 6 6 7 6 6 5 4 4 4 4 4 4 6 6 6 6 5 3 2 2 4 4 3 3 3 3 3
3 1 2 3 2 3 4 4 5 4 6 7 7 6 6 6 6 6 7 7 7 7 6 6 6 6 5 5 4 4 4 4 4 5 5 5 6 7 5 3 2 4 3 3 3 3 3 3 2
3 2 2 3 3 2 3 6 5 5 6 8 7 6 6 7 7 6 7 8 7 6 6 6 5 5 5 4 4 3 3 2 3 3 4 5 5 6 6 4 3 4 3 2 2 2 2 2 2
4 3 3 5 5 3 5 6 7 7 6 6 6 6 7 7 6 6 7 8 7 6 6 6 5 4 4 3 3 3 2 1 2 2 4 5 5 6 5 3 3 3 3 2 2 2 3 2 2
3 2 2 4 3 3 4 6 6 6 8 9 9 8 8 7 6 6 7 7 7 7 7 6 6 5 5 4 3 3 3 2 2 1 3 4 5 5 5 4 3 2 3 2 2 2 2 1 2
2 4 4 4 4 3 1 5 3 3 3 4 6 7 8 10 10 9 8 7 8 8 8 7 6 6 5 4 3 3 3 2 2 1 1 1 4 5 5 5 4 3 3 2 1 2 3 1 1
3 4 4 2 1 4 1 3 7 4 3 4 6 6 7 8 8 8 9 8 8 8 8 7 7 6 5 6 6 6 4 3 3 2 2 1 3 4 4 5 4 3 3 3 2 2 2 3 1
5 4 2 2 2 3 2 2 7 2 4 7 7 7 8 9 9 9 9 9 8 7 6 6 6 6 5 5 6 6 4 3 2 2 2 1 1 2 3 4 4 3 2 3 2 2 2 2 2
1 3 5 4 3 2 4 4 6 4 6 6 7 7 8 8 8 8 7 7 6 5 5 5 6 6 5 6 6 6 6 5 4 3 2 1 1 1 2 3 3 3 3 3 3 2 3 2 2
5 5 4 4 3 5 4 3 7 7 5 7 8 7 7 7 7 8 8 7 6 6 6 5 6 6 5 6 6 6 7 6 6 5 4 3 2 1 2 2 3 3 3 3 3 3 3 2 2
2 6 5 3 4 4 4 3 6 5 3 3 5 6 5 5 6 8 8 8 7 7 7 6 6 5 6 6 6 5 5 4 4 4 3 3 3 3 3 3 3 3 3 3 3 2 3 3 3
2 2 6 5 2 2 4 4 5 3 2 1 2 3 4 5 6 7 7 7 6 6 6 6 6 5 6 6 5 4 4 4 4 4 3 3 2 2 2 2 2 3 3 3 3 3 3 3 3
4 5 4 3 2 2 4 3 4 3 2 1 1 3 3 3 3 4 5 6 6 6 5 5 6 6 5 5 5 4 4 4 4 4 3 3 3 2 2 2 2 2 2 2 3 3 3 3 3
1 1 3 3 4 4 2 5 4 5 4 3 3 3 4 4 4 4 4 5 5 4 4 4 4 4 4 5 5 4 4 4 3 3 4 4 3 3 3 3 3 3 2 2 3 3 3 4 4
4 4 4 3 3 3 3 6 5 3 3 3 3 2 3 4 4 4 4 4 4 4 4 4 4 4 4 4 4 5 4 3 3 3 3 3 3 3 4 3 3 3 3 3 3 4 3 4 5
Wind_Direction
326 351 86 60 55 57 67 73 126 67 55 59 71 82 83 71 90 124 192 149 130 123 114 104 103 97 91 86 84 83 82 81 84 85 85 85 86 87 89 87 85 83 81 79 78 78 77 74 73
349 26 62 58 79 78 40 85 93 96 133 119 80 82 78 73 95 114 131 140 129 126 121 113 108 103 97 91 87 85 84 84 86 86 87 85 84 86 88 88 86 85 83 80 78 77 76 74 72
331 64 75 68 87 129 144 154 115 99 107 101 81 60 76 105 113 132 151 140 128 123 125 120 111 106 103 99 94 90 89 88 88 89 86 85 85 87 90 91 89 86 85 82 80 77 76 73 72
54 46 57 74 93 161 154 167 131 106 73 62 91 62 51 88 131 142 141 133 128 129 131 124 116 111 108 105 100 97 93 91 90 90 89 87 86 87 89 89 87 86 85 84 82 79 76 73 72
63 69 65 68 80 105 141 145 123 101 84 78 90 90 57 29 107 128 132 134 135 137 134 128 121 115 109 106 105 101 97 93 94 93 92 91 90 90 89 87 86 86 85 84 81 78 76 72 70
58 70 85 94 72 59 60 98 100 94 102 100 98 104 88 101 119 136 134 135 139 142 141 134 128 122 115 110 108 105 102 98 99 96 95 95 92 91 89 87 85 85 85 81 78 75 73 71 70
97 88 110 125 93 73 94 91 106 115 119 134 125 107 121 145 145 138 135 131 134 134 130 132 135 129 125 120 115 112 110 107 105 101 97 96 93 92 89 85 84 83 80 77 73 68 67 69 70
121 94 80 109 115 115 99 81 109 116 117 127 117 128 162 192 151 125 120 121 128 133 137 142 139 132 132 129 125 123 118 114 111 108 101 96 93 91 87 80 81 84 83 80 73 68 68 69 67
89 82 119 160 144 150 101 92 71 78 97 81 88 137 162 155 127 112 106 106 123 133 144 153 150 146 144 144 133 126 120 117 115 112 109 101 91 86 83 76 79 85 84 81 76 70 67 67 65
88 115 185 175 152 140 110 109 117 86 84 81 79 97 128 133 127 131 136 138 139 145 153 158 160 160 158 149 132 124 115 112 110 111 112 108 97 90 87 78 76 78 78 75 73 73 66 66 65
122 150 139 107 127 121 112 97 96 116 126 156 150 149 145 138 140 149 158 153 155 147 144 153 159 157 150 136 138 133 121 113 108 113 119 111 97 88 78 72 66 63 60 56 60 59 56 62 76
99 98 117 118 97 98 121 97 74 125 182 176 160 156 153 155 163 166 166 160 152 142 144 154 155 145 142 139 143 140 134 127 120 125 124 120 109 91 80 76 64 53 52 52 55 65 58 69 84
102 133 133 123 102 118 104 103 108 142 161 150 147 146 155 165 171 174 167 160 151 151 150 151 147 148 142 126 131 129 140 137 132 130 126 127 122 109 108 90 72 61 65 63 57 67 67 72 79
160 143 128 136 123 113 107 89 105 187 146 139 149 157 165 165 163 158 154 151 156 158 154 144 145 152 136 130 130 132 135 125 118 122 126 125 126 127 116 89 77 69 65 67 77 87 76 68 80
111 78 19 313 155 158 103 32 214 202 155 151 167 170 172 171 163 166 167 160 163 161 152 151 150 143 138 138 134 126 127 116 114 122 128 129 131 128 121 103 87 84 83 78 74 69 70 67 72
45 55 347 283 178 171 126 218 251 212 158 166 177 175 178 181 175 175 163 156 158 150 143 147 149 141 138 137 128 117 120 114 119 127 126 128 130 125 115 107 104 98 87 80 75 69 68 61 65
27 153 238 292 235 168 149 217 240 207 169 179 183 180 174 180 182 173 156 150 149 148 147 142 139 144 141 135 121 113 115 111 114 118 116 117 121 119 113 113 112 102 86 73 85 70 84 76 63
222 205 233 252 259 159 191 235 238 216 186 193 192 186 174 179 190 173 158 151 146 146 144 136 134 134 130 117 100 84 80 90 93 106 116 119 116 117 113 108 102 98 88 68 68 73 62 84 82
184 186 234 254 244 194 219 239 235 218 202 196 193 190 185 193 193 160 154 149 145 146 140 140 140 139 130 123 128 123 124 127 100 108 115 119 113 113 112 108 104 102 106 106 96 93 70 53 66
173 187 259 291 278 207 228 249 242 211 204 198 192 192 192 189 177 162 153 152 152 154 150 148 152 152 152 158 159 156 153 146 141 123 97 113 119 121 124 121 124 120 109 91 87 92 91 47 62
206 192 214 246 308 331 323 318 292 258 219 199 190 189 189 187 185 174 164 163 159 159 164 163 167 164 161 150 129 106 78 58 58 74 100 126 130 126 128 132 128 128 126 132 133 119 119 123 4
243 236 218 234 359 289 189 282 287 254 235 221 208 192 188 187 181 173 167 168 172 177 174 166 166 164 158 145 142 144 149 162 192 183 172 151 137 134 135 140 137 143 143 147 156 125 123 128 139
224 243 264 250 225 302 309 199 283 258 224 230 218 202 192 187 181 176 175 177 176 174 172 168 161 162 157 152 151 148 148 171 168 146 138 146 147 142 143 143 144 154 156 163 158 136 128 130 151
159 36 17 37 80 288 247 191 272 238 218 215 214 199 195 188 181 177 172 166 170 165 157 162 160 165 162 158 155 157 160 161 147 151 162 172 172 189 176 155 156 166 169 178 179 165 158 156 145
69 74 21 359 6 257 264 199 247 251 221 196 194 193 196 186 178 176 171 168 170 165 166 162 164 170 168 165 167 169 172 167 168 175 179 173 178 208 225 191 189 187 184 181 173 173 184 181 171
178 141 158 206 236 278 313 242 260 269 236 182 179 172 169 176 184 182 183 180 177 176 172 170 167 174 171 171 179 179 174 170 177 181 177 183 198 210 208 193 195 196 188 186 178 187 205 194 197
145 173 179 158 222 273 286 285 310 348 24 71 138 140 166 184 189 185 180 178 178 177 179 174 171 172 176 174 172 171 173 170 175 179 175 186 207 209 188 184 193 203 195 192 184 201 215 207 212
157 157 93 123 183 264 290 268 250 274 273 282 188 182 183 182 177 180 178 178 180 179 177 169 168 171 174 173 175 174 182 183 180 169 171 183 199 199 188 192 194 199 197 194 190 210 215 201 218
129 118 125 144 169 173 249 276 242 214 217 195 204 203 182 175 178 180 182 181 173 164 162 165 171 169 171 181 178 172 187 188 179 182 196 198 198 196 197 201 201 204 210 210 200 212 211 209 220
174 174 150 165 240 184 186 262 285 214 192 170 185 191 175 173 175 173 167 161 158 162 165 172 176 180 193 191 182 182 186 178 184 201 208 201 199 204 202 197 198 205 209 212 206 218 219 215 219
Height
1508 1507 1506 1507 1511 1524 1527 1521 1516 1514 1515 1515 1514 1515 1519 1523 1526 1532 1529 1527 1527 1526 1525 1525 1524 1523 1522 1522 1521 1520 1519 1518 1518 1518 1518 1518 1518 1519 1519 1518 1518 1518 1518 1518 1517 1517 1517 1516 1516
1508 1507 1508 1508 1521 1535 1531 1520 1517 1514 1516 1515 1516 1518 1520 1524 1525 1527 1527 1527 1527 1527 1526 1525 1525 1524 1524 1523 1522 1522 1521 1520 1520 1520 1520 1520 1520 1520 1520 1520 1520 1520 1519 1519 1519 1519 1518 1518 1518
1508 1508 1509 1513 1524 1532 1528 1519 1516 1515 1515 1515 1518 1520 1522 1525 1526 1527 1528 1528 1528 1528 1527 1527 1526 1525 1525 1524 1524 1523 1522 1522 1522 1521 1521 1522 1521 1521 1521 1521 1521 1521 1521 1521 1521 1520 1520 1520 1520
1508 1509 1511 1519 1525 1521 1519 1516 1515 1516 1517 1518 1519 1523 1525 1527 1527 1528 1528 1529 1529 1529 1528 1528 1527 1526 1526 1526 1525 1524 1524 1524 1524 1523 1523 1523 1523 1523 1523 1523 1523 1523 1523 1523 1522 1522 1522 1522 1521
1509 1510 1518 1526 1523 1517 1515 1514 1514 1515 1518 1520 1520 1525 1527 1529 1528 1529 1529 1530 1530 1530 1529 1529 1528 1528 1527 1527 1526 1526 1526 1526 1525 1525 1525 1525 1525 1525 1525 1525 1525 1525 1525 1524 1524 1524 1524 1523 1523
1510 1513 1527 1532 1524 1518 1515 1514 1515 1518 1521 1522 1523 1526 1529 1530 1530 1530 1531 1531 1531 1531 1530 1530 1530 1529 1529 1528 1528 1528 1527 1527 1527 1527 1527 1527 1527 1527 1527 1527 1527 1526 1526 1526 1526 1525 1525 1525 1525
1512 1518 1526 1527 1526 1521 1518 1516 1516 1519 1521 1523 1523 1526 1529 1531 1531 1531 1532 1532 1532 1532 1532 1531 1531 1531 1530 1530 1529 1529 1529 1529 1529 1529 1529 1529 1529 1529 1529 1529 1528 1528 1528 1527 1527 1527 1527 1526 1526
1511 1518 1524 1526 1526 1523 1518 1517 1517 1518 1521 1523 1524 1526 1529 1531 1532 1532 1532 1533 1533 1533 1533 1532 1532 1531 1531 1531 1530 1530 1530 1530 1530 1530 1530 1530 1530 1530 1530 1530 1530 1530 1530 1529 1529 1529 1529 1528 1528
1512 1522 1529 1525 1524 1522 1517 1518 1519 1520 1521 1523 1524 1525 1527 1530 1531 1533 1533 1533 1533 1533 1533 1533 1533 1532 1532 1532 1531 1531 1531 1532 1532 1532 1532 1532 1532 1532 1532 1532 1532 1531 1531 1531 1531 1531 1531 1530 1530
1513 1525 1522 1518 1517 1518 1518 1518 1520 1521 1522 1524 1525 1527 1528 1529 1531 1532 1532 1533 1533 1533 1534 1534 1533 1533 1533 1532 1532 1532 1533 1533 1533 1533 1534 1534 1534 1534 1534 1534 1533 1533 1533 1533 1532 1532 1532 1532 1532
1514 1519 1517 1516 1516 1517 1518 1519 1520 1521 1524 1524 1525 1527 1528 1530 1531 1532 1532 1532 1533 1534 1534 1534 1534 1533 1533 1532 1532 1532 1533 1534 1534 1534 1535 1535 1535 1535 1535 1535 1534 1534 1534 1534 1534 1534 1534 1533 1533
1515 1515 1515 1516 1516 1517 1518 1519 1520 1521 1523 1524 1524 1525 1527 1529 1530 1531 1531 1532 1534 1534 1534 1534 1534 1533 1533 1532 1532 1533 1533 1534 1535 1535 1536 1536 1536 1536 1536 1536 1536 1536 1535 1535 1535 1535 1535 1535 1534
1515 1516 1516 1516 1517 1518 1518 1519 1521 1522 1522 1524 1525 1526 1527 1528 1529 1531 1532 1532 1533 1534 1534 1534 1534 1534 1533 1532 1532 1533 1534 1535 1536 1536 1537 1537 1537 1537 1537 1537 1537 1537 1537 1537 1536 1536 1536 1536 1536
1515 1515 1516 1516 1517 1518 1519 1520 1521 1522 1523 1524 1525 1525 1526 1527 1528 1530 1531 1532 1533 1534 1534 1534 1534 1534 1534 1534 1534 1534 1535 1536 1536 1537 1537 1538 1538 1538 1538 1538 1538 1538 1538 1538 1538 1537 1537 1537 1536
1515 1517 1518 1517 1517 1518 1519 1523 1522 1522 1522 1523 1524 1525 1526 1527 1528 1529 1530 1531 1532 1533 1534 1534 1534 1535 1535 1535 1535 1535 1536 1536 1537 1538 1538 1538 1538 1539 1539 1539 1539 1539 1539 1538 1538 1538 1538 1537 1537
1517 1522 1527 1520 1517 1518 1523 1530 1521 1521 1522 1522 1523 1524 1525 1526 1527 1528 1529 1530 1531 1532 1533 1534 1534 1535 1535 1536 1536 1536 1537 1537 1538 1538 1538 1539 1539 1539 1539 1539 1539 1539 1539 1539 1539 1538 1538 1538 1537
1525 1531 1530 1523 1517 1517 1521 1526 1520 1520 1520 1521 1522 1523 1524 1525 1526 1527 1529 1530 1530 1531 1532 1533 1534 1535 1535 1536 1537 1537 1537 1538 1538 1538 1539 1539 1539 1539 1539 1539 1539 1539 1539 1539 1539 1539 1538 1538 1538
1532 1531 1528 1526 1518 1518 1522 1522 1518 1518 1518 1519 1520 1521 1522 1524 1525 1526 1527 1529 1530 1531 1532 1532 1533 1534 1535 1536 1536 1537 1538 1538 1538 1539 1539 1539 1539 1539 1539 1539 1539 1539 1539 1539 1539 1539 1538 1538 1538
1522 1525 1528 1523 1516 1518 1521 1520 1517 1515 1516 1517 1518 1519 1520 1522 1524 1525 1526 1527 1529 1529 1530 1531 1532 1533 1534 1535 1535 1536 1537 1537 1538 1538 1539 1539 1539 1539 1539 1539 1539 1539 1539 1538 1538 1538 1538 1538 1538
1520 1525 1526 1521 1515 1516 1519 1519 1514 1513 1513 1514 1515 1516 1518 1520 1522 1523 1525 1526 1527 1528 1529 1530 1531 1532 1533 1534 1535 1535 1536 1537 1537 1538 1538 1538 1538 1539 1538 1538 1538 1538 1538 1538 1538 1538 1537 1537 1537
1520 1524 1524 1522 1518 1516 1519 1523 1517 1513 1512 1512 1513 1514 1515 1517 1518 1520 1522 1523 1525 1526 1527 1528 1529 1531 1532 1533 1534 1535 1535 1536 1536 1536 1537 1537 1537 1538 1537 1537 1537 1537 1537 1537 1537 1537 1537 1537 1537
1523 1515 1516 1518 1525 1530 1524 1538 1522 1515 1513 1511 1511 1512 1513 1514 1516 1517 1519 1521 1523 1524 1525 1526 1528 1529 1530 1531 1532 1533 1533 1534 1534 1535 1535 1536 1536 1536 1536 1536 1536 1536 1536 1536 1536 1536 1536 1536 1536
1515 1511 1514 1516 1522 1529 1527 1535 1527 1516 1515 1511 1509 1509 1510 1512 1514 1515 1517 1519 1521 1522 1523 1524 1526 1527 1528 1529 1530 1531 1532 1532 1533 1534 1534 1534 1534 1534 1534 1534 1535 1535 1534 1535 1535 1535 1535 1535 1535
1509 1514 1517 1522 1528 1539 1529 1534 1530 1518 1511 1507 1506 1506 1507 1509 1511 1513 1515 1517 1519 1520 1521 1522 1523 1524 1526 1527 1528 1529 1530 1530 1531 1532 1532 1532 1533 1533 1533 1533 1533 1533 1533 1533 1533 1533 1533 1533 1534
1513 1528 1541 1542 1547 1542 1526 1528 1525 1507 1502 1501 1502 1503 1505 1507 1509 1511 1512 1514 1516 1518 1519 1520 1521 1522 1523 1525 1526 1526 1527 1528 1529 1529 1530 1530 1530 1530 1531 1531 1531 1531 1531 1531 1531 1531 1531 1532 1532
1516 1525 1542 1550 1550 1542 1528 1528 1516 1502 1499 1499 1500 1502 1503 1505 1507 1508 1510 1512 1514 1515 1517 1518 1519 1520 1521 1522 1523 1524 1525 1526 1526 1527 1527 1528 1528 1528 1528 1528 1529 1529 1529 1529 1529 1529 1529 1529 1530
1517 1522 1523 1535 1536 1541 1534 1522 1510 1502 1501 1500 1500 1501 1502 1504 1505 1507 1508 1510 1512 1513 1515 1516 1517 1517 1518 1520 1521 1522 1522 1523 1524 1524 1525 1525 1526 1526 1526 1526 1526 1526 1526 1526 1526 1526 1527 1527 1527
1511 1516 1528 1534 1542 1546 1536 1527 1522 1509 1505 1502 1501 1501 1501 1503 1504 1505 1507 1508 1509 1511 1513 1514 1515 1515 1516 1517 1518 1519 1520 1520 1521 1522 1522 1522 1523 1523 1523 1523 1523 1523 1524 1524 1524 1524 1524 1524 1525
1514 1517 1523 1531 1535 1543 1543 1533 1508 1506 1503 1503 1502 1501 1501 1502 1503 1503 1505 1507 1508 1509 1510 1511 1512 1513 1513 1515 1515 1516 1517 1518 1518 1518 1519 1519 1519 1520 1520 1520 1520 1520 1520 1521 1521 1521 1521 1521 1521
1510 1514 1522 1533 1534 1535 1539 1531 1503 1502 1501 1501 1501 1501 1501 1501 1502 1502 1504 1505 1506 1507 1508 1509 1510 1511 1511 1512 1512 1513 1514 1514 1515 1515 1515 1516 1516 1516 1516 1517 1517 1517 1517 1517 1517 1517 1518 1518 1518